Location: De Har
(53.3413°N, 6.6858°E)
Time: 17:14:03
(UTC+00:00)

Cosmos 2333 - Pass Details

Date: 22 April 2026
Orbit: 829 x 863 km, 70.9° (Epoch: 9 May)

Event Time Altitude Azimuth Distance (km) Brightness Sun altitude
Rises 01:38:50 0° 327° (NNW) 3,402 7.7 -19.1°
Reaches altitude 10° 01:41:17 10° 329° (NNW) 2,469 6.9 -18.9°
Maximum altitude 01:46:58 82° 57° (ENE) 861 4.2 -18.4°
Drops below altitude 10° 01:52:41 10° 146° (SE) 2,477 6.4 -17.9°
Sets 01:55:08 0° 147° (SSE) 3,415 7.2 -17.7°
